Probability
0 0 0 0 0 0 0 0 0 0 0 0 0 0 0 0 0 0 0 0 0 0 0 0 0 0 0 0 0 0 0 0 0 0 0 0 0 0 0 0 0 0 0 0 0 0 0 0 0
0 0 0 0 0 0 0 0 0 0 0 0 0 0 0 0 0 0 0 0 0 0 0 0 0 0 0 0 0 0 0 0 0 0 0 0 0 0 0 0 0 0 0 0 0 0 0 0 0
0 0 0 0 0 0 0 0 0 0 0 0 0 0 0 0 0 0 0 0 0 0 0 0 0 0 0 0 0 0 0 0 0 0 0 0 0 0 0 0 0 0 0 0 0 0 0 0 0
0 0 0 0 0 0 0 0 0 0 0 0 0 0 0 0 0 0 0 0 0 0 0 0 0 0 0 0 0 0 0 0 0 0 0 0 0 0 0 0 0 0 0 0 0 0 0 0 0
0 0 0 0 0 0 0 0 0 0 0 0 0 0 0 0 0 0 0 0 0 0 0 0 0 0 0 0 0 0 0 0 0 0 0 0 0 0 0 0 0 0 0 0 0 0 0 0 0
0 0 0 0 0 0 0 0 0 0 0 0 0 0 0 0 0 0 0 0 0 0 0 0 0 0 0 0 0 0 0 0 0 0 0 0 0 0 0 0 0 0 0 0 0 0 0 0 0
0 0 0 0 0 0 0 0 0 0 0 0 0 0 0 0 0 0 0 0 0 0 0 0 0 0 0 0 0 0 0 0 0 0 0 0 0 0 0 0 0 0 0 0 0 0 0 0 0
0 0 0 0 0 0 0 0 0 0 0 0 0 0 0 0 0 0 0 0 0 0 0 0 0 0 0 0 0 0 0 0 0 0 0 0 0 0 0 0 0 0 0 0 0 0 0 0 0
0 0 0 0 0 0 0 0 0 0 0 0 0 0 0 0 0 0 0 0 0 0 0 0 0 0 0 0 0 0 0 0 0 0 0 0 0 0 0 0 0 0 0 0 0 0 0 0 0
0 0 0 0 0 0 0 0 0 0 0 0 0 0 0 0 0 0 0 0 0 0 0 0 0 0 0 0 0 0 0 0 0 0 0 0 0 0 0 0 0 0 0 0 0 0 0 0 0
0 0 0 0 0 0 0 0 0 0 0 0 0 0 0 0 0 0 0 0 0 0 0 0 0 0 0 0 0 0 0 0 0 0 0 0 0 0 0 0 0 0 0 0 0 0 0 0 0
0 0 0 0 0 0 0 0 0 0 0 0 0 0 0 0 0 0 0 0 0 0 0 0 0 0 0 0 0 0 0 0 0 0 0 0 0 0 0 0 0 0 0 0 0 0 0 0 0
0 0 0 0 0 0 0 0 0 0 0 0 0 0 0 0 0 0 0 0 0 0 0 0 0 1 0 0 0 0 0 0 0 0 0 0 0 0 0 0 0 0 0 0 0 0 0 0 0
0 0 0 0 0 0 0 0 0 0 0 0 0 0 0 0 0 0 0 0 0 0 0 0 0 0 0 0 0 0 0 0 0 0 0 0 0 0 0 0 0 0 0 0 0 0 0 0 0
0 0 0 0 0 0 0 0 0 0 0 0 0 0 0 0 0 0 0 0 0 0 0 0 0 0 0 0 0 0 0 0 0 0 0 0 0 0 0 0 0 0 0 0 0 0 0 0 0
0 0 0 0 0 0 0 0 0 0 0 0 0 0 0 0 0 0 0 0 1 0 0 0 0 0 0 0 0 0 0 0 0 0 0 0 0 0 0 0 0 0 0 0 0 0 0 0 0
0 0 0 0 0 0 0 0 0 0 0 0 0 0 0 0 0 0 0 0 0 0 0 1 1 0 0 0 0 0 0 0 0 0 0 0 0 0 0 0 0 0 0 0 0 0 0 0 0
0 0 0 0 0 0 0 0 0 0 0 0 0 0 0 0 0 0 0 0 0 0 0 1 2 1 1 0 0 1 0 0 0 0 0 0 0 0 0 0 0 0 0 0 0 0 0 0 0
0 0 0 0 0 0 0 0 0 0 0 0 0 0 0 0 0 0 0 0 0 0 0 1 2 2 2 1 1 1 0 0 0 0 0 0 0 0 0 0 0 0 0 0 0 0 0 0 0
0 0 0 0 0 0 0 0 0 0 0 0 0 0 0 0 0 0 0 0 0 0 0 0 1 2 2 2 1 1 0 0 1 0 0 0 0 0 0 0 0 0 0 0 0 0 0 0 0
0 0 0 0 0 0 0 0 0 0 0 0 0 0 0 0 0 0 0 1 0 0 0 0 0 1 1 2 2 1 0 1 1 0 0 0 0 0 0 0 0 0 0 0 0 0 0 0 0
0 0 0 0 0 0 0 0 0 0 0 0 0 0 0 0 0 0 0 0 0 0 0 0 0 0 0 1 2 1 1 1 1 1 2 1 1 0 0 0 0 0 0 0 0 0 0 0 0
0 0 0 0 0 0 0 0 0 0 0 0 0 0 0 0 0 0 0 0 0 0 0 1 2 1 0 0 1 1 2 2 2 2 3 3 2 1 0 0 0 0 0 0 0 0 0 0 0
0 0 0 0 0 0 0 0 0 0 0 0 0 0 0 0 0 0 0 0 1 1 1 1 2 2 1 0 0 1 1 2 2 3 3 3 3 1 0 0 0 0 0 0 1 2 1 1 1
0 0 0 0 0 0 0 0 0 0 0 0 0 0 0 0 0 0 0 0 1 2 2 2 2 2 1 1 1 0 1 2 3 2 2 3 3 1 0 0 0 0 0 0 2 3 3 2 2
0 0 0 0 0 0 0 0 0 0 0 0 0 0 0 0 0 0 0 0 0 1 2 3 3 2 1 1 1 1 2 4 3 2 2 2 2 1 0 0 0 0 0 0 1 2 3 3 3
0 0 0 0 0 0 0 0 0 0 0 0 0 0 0 0 0 0 0 0 0 0 1 2 2 2 1 1 1 1 2 4 4 4 3 3 2 1 0 0 0 0 0 0 0 1 1 2 3
0 0 0 0 0 0 0 0 0 0 0 0 0 0 0 0 0 0 0 0 0 0 0 1 1 1 1 0 0 1 1 3 5 6 5 4 3 2 1 1 0 0 0 0 0 0 1 2 3
0 0 0 0 0 0 0 0 0 0 0 0 0 0 0 0 0 0 0 0 0 0 0 0 0 0 0 0 0 0 0 1 4 6 6 5 4 4 3 2 1 0 0 0 0 0 1 2 3
0 0 0 0 0 0 0 0 0 0 0 0 0 0 0 0 0 0 0 0 0 0 0 0 0 0 0 0 0 0 0 1 3 5 6 6 6 5 5 3 2 1 0 0 0 0 1 3 3
Wind_Speed
8 3 3 4 5 4 4 2 2 3 3 2 4 4 3 2 1 3 5 10 12 15 16 17 14 15 15 14 14 14 13 13 12 12 12 12 12 11 11 11 12 12 12 12 12 12 12 12 11
7 3 4 4 5 6 4 3 4 3 2 4 4 3 3 2 2 3 5 10 14 15 15 15 15 15 15 15 14 13 13 12 12 12 12 11 11 11 11 11 11 11 11 11 11 11 11 10 10
5 3 3 4 6 7 3 2 2 2 4 3 4 2 1 1 2 4 6 12 14 14 14 15 14 15 15 15 14 13 12 12 12 12 11 11 11 11 10 10 10 10 10 10 10 10 10 9 9
3 3 3 6 8 6 4 1 2 4 5 3 3 3 3 3 1 4 10 13 14 14 13 15 13 15 15 14 14 13 12 12 11 11 11 11 11 10 10 9 9 9 8 9 9 9 9 8 8
2 3 6 8 9 5 4 3 4 5 5 4 4 3 3 3 3 7 11 13 13 13 12 14 12 13 13 13 13 13 12 11 11 11 11 11 10 10 10 9 8 8 7 8 8 8 7 7 6
2 4 8 10 10 6 4 4 5 6 5 4 4 3 3 3 5 9 11 12 12 12 12 13 12 11 12 12 11 11 11 11 10 10 10 10 10 10 9 9 8 7 7 7 7 7 6 6 5
4 5 9 10 9 8 4 3 6 6 7 5 4 4 3 4 6 9 10 10 10 11 11 11 13 12 11 10 10 10 10 10 9 9 9 8 8 8 8 8 7 7 7 6 6 6 5 5 4
3 4 8 10 10 8 3 3 3 5 4 1 4 4 3 6 8 9 9 9 9 9 10 10 11 12 12 11 10 10 9 9 9 8 8 8 7 7 6 7 7 7 6 6 6 5 5 4 4
3 7 11 11 9 6 3 4 2 2 2 2 2 2 3 10 11 10 8 8 9 9 9 10 10 10 10 10 10 10 9 9 9 8 8 8 7 8 7 7 6 6 6 5 6 5 4 4 4
5 9 13 8 7 5 4 4 3 4 5 4 3 1 4 11 12 12 12 12 12 11 11 10 10 10 10 8 9 9 8 9 9 8 9 7 6 5 5 6 5 5 5 5 5 5 5 5 4
6 9 8 6 5 4 5 5 4 6 7 6 5 5 8 11 12 13 13 13 12 12 11 10 10 10 10 7 7 6 6 7 8 9 9 7 6 5 5 4 5 6 6 6 5 6 5 4 3
5 6 6 5 3 5 6 5 6 8 7 4 4 5 11 13 14 14 13 12 11 11 12 11 11 10 10 8 7 7 6 6 6 8 9 7 5 5 5 4 5 5 4 5 5 4 5 5 5
8 6 5 5 4 5 6 8 8 9 7 5 3 6 11 13 13 12 11 10 11 11 12 12 11 11 10 9 7 7 7 7 7 7 8 9 6 6 6 5 5 5 5 5 5 5 6 6 6
5 6 6 5 6 5 7 9 8 10 6 4 5 7 9 12 12 11 11 11 11 11 11 11 12 12 11 9 8 7 7 7 7 7 9 10 7 7 6 6 6 6 6 6 6 7 6 5 5
4 5 7 8 7 5 6 12 13 9 7 7 7 7 8 9 10 12 12 11 11 11 10 11 11 11 12 11 10 7 7 7 7 7 9 10 9 9 7 6 6 6 6 7 6 7 6 5 6
4 6 9 7 7 6 8 15 9 6 7 9 8 7 7 8 10 10 10 10 10 10 10 10 8 10 11 10 9 7 7 8 7 7 7 10 11 10 8 7 7 7 6 6 6 6 6 6 6
6 9 11 7 5 5 10 12 6 4 7 8 7 7 7 7 7 8 8 9 9 9 9 9 10 10 10 10 8 8 7 7 7 7 7 8 10 10 9 7 7 7 6 6 6 6 6 6 7
7 9 9 9 4 7 11 12 8 6 7 8 7 7 6 6 6 6 6 7 7 8 8 9 9 10 10 8 7 7 8 7 7 7 7 9 8 10 9 8 9 8 7 7 7 8 7 6 6
6 8 9 7 4 7 12 14 12 9 8 9 9 8 7 7 5 3 3 4 5 6 7 8 9 9 8 7 7 7 8 7 7 7 8 9 9 9 9 8 8 8 8 8 9 7 8 7 5
6 8 9 6 4 6 10 14 11 9 10 9 9 9 9 7 5 3 2 2 3 4 5 7 8 8 8 7 6 5 6 6 7 6 7 9 9 9 8 10 8 8 8 9 9 8 6 5 5
8 8 7 6 5 5 8 10 10 8 7 6 6 7 8 7 7 5 3 2 2 3 4 5 6 7 7 7 6 4 4 5 6 7 6 7 8 9 9 9 9 8 9 8 9 9 10 7 6
8 6 5 5 5 4 4 7 6 5 4 4 5 5 5 5 4 3 3 3 2 3 3 4 4 5 5 6 6 8 7 7 8 6 5 6 7 8 8 8 9 9 8 8 8 8 8 9 7
5 3 4 5 6 6 6 7 6 3 4 4 4 3 3 3 3 2 2 2 3 3 2 2 2 2 3 4 6 8 8 7 5 5 6 6 6 7 8 8 8 8 7 8 8 8 8 8 8
2 2 2 3 4 7 8 8 6 3 4 2 1 2 2 2 2 2 2 2 2 3 3 3 2 1 2 2 4 6 7 7 6 6 5 5 5 5 7 7 7 7 7 8 8 8 9 8 9
2 2 2 3 5 6 4 7 5 2 2 1 2 4 4 3 3 3 4 3 3 4 3 3 3 2 2 1 2 3 5 6 6 6 5 5 4 5 6 6 6 6 7 7 7 7 8 8 9
4 5 3 3 3 2 3 7 2 2 2 3 3 4 5 4 4 4 4 4 4 4 3 3 3 3 3 2 2 2 2 2 2 3 3 3 3 4 4 5 5 6 6 6 6 5 6 6 7
3 3 2 1 2 3 4 3 3 1 1 3 4 5 6 6 6 5 5 5 5 4 4 3 3 3 4 4 3 2 2 2 2 3 2 2 2 2 2 3 3 4 5 5 6 5 6 6 6
2 2 2 2 2 4 4 5 4 3 1 3 5 6 7 8 8 7 6 6 5 5 4 4 3 3 3 4 4 3 3 3 3 2 3 3 3 3 3 2 3 3 3 4 4 5 5 6 6
2 2 2 2 2 3 4 3 2 2 2 4 5 7 8 8 8 7 7 6 6 5 5 5 4 4 4 4 4 4 4 3 3 3 3 3 3 3 3 3 3 3 3 3 3 4 5 6 6
2 3 3 3 3 4 4 3 1 2 3 5 7 7 7 7 7 7 7 6 6 6 6 5 5 5 5 4 4 4 4 4 4 4 4 4 4 4 3 3 3 3 3 3 4 4 5 5 6
Wind_Direction
326 310 245 240 233 231 233 197 206 175 177 156 164 192 215 218 288 37 79 151 148 151 153 155 156 154 152 150 148 146 147 147 144 140 138 135 132 128 125 122 119 116 113 112 110 106 103 100 98
319 289 244 243 245 232 217 199 211 202 127 131 163 192 203 182 38 83 134 153 153 152 155 158 152 154 153 153 152 151 152 150 147 145 142 140 137 134 129 127 125 121 119 118 114 110 108 104 103
304 265 259 235 237 242 227 186 209 134 150 172 169 200 245 73 114 137 143 155 154 154 157 151 153 156 156 156 156 155 154 152 151 150 148 145 141 139 135 132 129 126 125 124 121 116 113 110 108
289 232 232 236 230 236 256 231 174 158 171 198 196 167 131 46 70 125 142 156 155 156 158 153 158 158 159 160 161 161 158 156 155 154 152 150 148 143 140 136 132 130 129 129 127 123 118 118 116
265 247 229 230 234 233 248 264 210 198 186 183 206 191 140 85 83 132 150 157 156 157 160 159 160 160 161 163 164 164 162 159 158 156 153 152 151 148 146 144 140 137 135 134 132 132 129 126 125
246 231 232 233 230 232 241 238 214 219 211 193 203 195 131 104 134 147 154 160 158 158 160 161 158 160 162 165 166 167 165 163 161 160 157 158 157 155 153 152 150 149 148 145 144 144 140 136 134
247 235 241 242 241 238 236 215 222 221 216 206 206 198 155 151 151 153 156 159 159 161 165 167 169 169 167 168 168 168 167 165 164 160 157 155 156 157 158 157 158 160 161 158 154 153 151 150 147
265 238 236 236 240 243 230 212 244 238 229 156 207 220 177 157 150 153 154 158 161 166 172 174 176 178 178 177 171 170 171 169 166 161 156 154 156 160 161 170 168 172 173 170 167 167 168 170 166
232 231 233 230 234 238 218 225 225 281 204 181 228 318 37 134 148 153 157 165 171 178 180 180 182 184 184 183 175 177 174 174 172 170 163 170 184 183 179 183 174 181 182 182 182 181 182 180 179
214 232 237 242 244 245 226 244 238 215 219 216 209 144 132 150 162 170 176 180 183 186 188 187 188 188 187 185 182 188 187 185 192 189 184 192 195 193 193 167 180 187 189 194 196 193 196 216 212
218 239 247 242 248 255 246 251 252 243 239 238 229 184 162 170 177 185 189 190 190 190 190 194 193 191 191 188 190 191 192 193 198 197 195 196 196 192 199 190 187 198 202 209 199 207 219 226 236
230 240 248 247 246 246 247 250 245 242 258 293 270 184 173 182 188 194 196 196 193 194 196 197 196 195 196 195 195 197 196 196 199 199 200 199 199 202 202 206 205 206 208 214 217 220 225 233 238
234 240 249 261 261 267 257 245 255 250 269 285 249 190 192 194 198 200 201 200 199 200 200 200 200 199 198 199 202 202 203 203 203 203 203 206 207 208 207 209 210 213 215 216 221 224 228 234 240
248 250 261 266 256 255 251 255 251 252 268 257 223 212 208 208 206 203 202 204 206 207 205 202 204 205 203 203 204 207 207 206 208 207 208 209 213 213 212 212 214 218 220 223 227 230 233 237 240
257 252 254 250 247 245 251 251 240 252 255 248 238 229 223 222 215 214 211 211 210 210 210 208 208 208 208 209 208 211 211 209 211 212 213 212 215 217 215 217 218 221 222 225 230 233 236 241 243
226 236 241 236 235 229 228 249 243 249 244 245 244 239 234 229 227 226 224 221 218 215 213 211 208 210 211 212 212 211 214 212 215 215 215 216 217 218 217 221 223 224 223 223 226 230 233 238 244
214 233 240 240 230 226 226 253 257 262 244 244 245 244 242 242 238 232 228 227 224 221 217 214 210 211 212 213 214 214 215 217 217 216 217 218 219 219 220 224 226 224 223 224 225 229 233 242 246
222 234 241 239 237 235 238 251 258 262 252 250 250 253 253 251 249 245 235 229 227 225 224 221 216 215 211 210 214 216 219 221 221 220 220 220 220 220 222 226 227 222 224 227 226 231 233 242 250
244 243 247 254 274 250 249 257 260 258 249 250 253 256 261 263 270 270 252 238 230 225 224 223 221 218 212 208 211 215 219 220 222 224 227 223 222 221 223 226 226 221 223 227 228 229 234 236 236
247 248 254 267 281 265 264 264 264 260 252 249 253 258 263 269 271 264 260 245 237 236 233 229 225 222 219 220 218 223 223 223 225 225 227 226 224 222 222 226 227 222 224 227 227 225 229 230 218
245 247 252 268 291 272 273 263 251 253 255 254 259 261 261 264 270 274 282 263 247 250 254 248 238 230 226 227 224 221 223 224 220 224 226 226 225 224 222 226 226 225 224 227 226 224 227 232 224
247 254 262 265 261 254 246 266 254 262 250 246 253 256 263 267 279 295 306 309 305 282 271 263 259 248 236 224 223 222 223 230 230 227 224 223 220 224 226 228 229 227 225 228 226 226 229 232 233
251 256 260 256 253 256 233 252 263 250 248 250 245 263 282 290 295 306 312 304 312 317 311 287 276 273 262 237 232 232 236 241 244 235 225 222 221 224 226 228 231 232 228 228 227 224 226 228 234
260 230 256 252 238 242 232 232 262 241 255 274 323 346 333 318 314 321 338 359 0 359 358 346 352 342 318 280 252 240 240 242 243 244 240 231 226 225 227 229 230 233 232 230 230 227 226 226 231
216 203 201 205 213 238 222 224 252 317 326 321 341 352 351 351 343 342 347 353 6 11 9 7 14 5 359 336 295 274 254 245 245 249 248 249 240 233 229 226 230 234 235 234 231 228 229 229 231
219 213 222 228 227 245 210 230 249 14 35 33 17 11 7 2 356 353 351 350 356 4 7 11 10 2 6 6 333 319 319 292 278 274 272 270 265 257 248 233 232 234 237 237 232 231 233 233 233
192 213 248 293 315 266 240 256 266 279 6 15 13 13 8 3 359 353 350 348 350 358 1 3 8 8 9 7 360 358 353 343 335 328 318 312 317 311 288 254 240 242 241 240 234 230 231 231 232
219 185 172 195 233 246 255 247 237 221 281 353 359 354 351 356 0 357 354 352 351 355 3 12 17 16 13 16 13 5 5 358 346 346 353 345 332 327 331 294 264 255 254 250 246 237 233 232 235
181 184 190 184 237 251 264 263 347 273 313 337 339 342 349 353 352 352 354 358 2 6 12 17 15 15 15 13 8 6 3 359 357 353 344 334 325 324 326 320 301 283 269 262 255 253 241 234 236
234 210 201 215 220 234 257 268 358 283 328 338 343 347 349 351 354 355 357 2 6 10 11 11 11 9 4 1 360 359 359 359 359 349 336 332 324 321 319 314 316 309 298 282 258 256 251 243 244